KLM5AM EHAM-EGBB

Flight info

Callsign KLM5AM
Flight time 0h 40m
Altitude 34000
Route IDRID L980 LAM L610 HEMEL
Aircraft B738/M-SDE2E3FGHIRWXY/LB1

Departure

Time 2026-04-29 10:30
Airport Amsterdam Airport Schiphol (EHAM)

Arrival

Time 2026-04-29 11:10
Airport Birmingham Airport (EGBB)
Time Latitude Longitude Altitude Speed Heading
2026-04-29 10:00 52.30712 4.77089 -2 ft 0 kts
2026-04-29 10:14 52.30698 4.77088 -2 ft 3 kts 12°
2026-04-29 10:15 52.30680 4.77079 -2 ft 3 kts
2026-04-29 10:15 52.30670 4.77081 -2 ft 2 kts 306°
2026-04-29 10:15 52.30661 4.77100 -2 ft 3 kts 301°
2026-04-29 10:15 52.30657 4.77111 -2 ft 0 kts 303°
2026-04-29 10:17 52.30658 4.77106 -2 ft 2 kts 287°
2026-04-29 10:18 52.30656 4.77016 -2 ft 16 kts 272°
2026-04-29 10:18 52.30595 4.76887 -2 ft 19 kts 159°
2026-04-29 10:18 52.30477 4.76967 -2 ft 15 kts 192°
2026-04-29 10:18 52.30422 4.76855 -2 ft 13 kts 238°
2026-04-29 10:19 52.30357 4.76685 -2 ft 23 kts 238°
2026-04-29 10:19 52.30256 4.76422 -2 ft 32 kts 238°
2026-04-29 10:19 52.30121 4.76069 -2 ft 41 kts 238°
2026-04-29 10:19 52.29984 4.75713 -2 ft 35 kts 238°
2026-04-29 10:20 52.29867 4.75409 -2 ft 28 kts 238°
2026-04-29 10:20 52.29872 4.75137 -2 ft 23 kts 309°
2026-04-29 10:20 52.29975 4.74942 -2 ft 22 kts 310°
2026-04-29 10:20 52.30079 4.74756 0 ft 22 kts 309°
2026-04-29 10:21 52.30176 4.74573 9 ft 21 kts 310°
2026-04-29 10:21 52.30271 4.74393 9 ft 21 kts 310°
2026-04-29 10:21 52.30390 4.74210 -2 ft 25 kts 341°
2026-04-29 10:21 52.30555 4.74204 -2 ft 23 kts
2026-04-29 10:22 52.30661 4.74214 -2 ft 23 kts
2026-04-29 10:22 52.30817 4.74228 -2 ft 22 kts
2026-04-29 10:22 52.30966 4.74244 -2 ft 21 kts
2026-04-29 10:22 52.31113 4.74256 -2 ft 21 kts
2026-04-29 10:23 52.31255 4.74269 -2 ft 20 kts
2026-04-29 10:23 52.31392 4.74283 -2 ft 19 kts
2026-04-29 10:23 52.31525 4.74294 -2 ft 19 kts
2026-04-29 10:23 52.31666 4.74307 -2 ft 24 kts
2026-04-29 10:24 52.31848 4.74325 -2 ft 28 kts
2026-04-29 10:24 52.32021 4.74281 -2 ft 22 kts 292°
2026-04-29 10:24 52.32037 4.74035 -3 ft 22 kts 273°
2026-04-29 10:24 52.32045 4.73793 -2 ft 21 kts 272°
2026-04-29 10:25 52.32053 4.73558 -2 ft 20 kts 273°
2026-04-29 10:25 52.32098 4.73344 -2 ft 23 kts 317°
2026-04-29 10:25 52.32225 4.73163 -2 ft 25 kts 319°
2026-04-29 10:25 52.32361 4.72972 -2 ft 27 kts 319°
2026-04-29 10:26 52.32504 4.72771 -2 ft 28 kts 320°
2026-04-29 10:26 52.32656 4.72557 -2 ft 30 kts 316°
2026-04-29 10:26 52.32799 4.72299 -2 ft 31 kts 312°
2026-04-29 10:26 52.32937 4.72041 -2 ft 28 kts 310°
2026-04-29 10:27 52.33146 4.71625 -2 ft 14 kts 281°
2026-04-29 10:27 52.33113 4.71480 -2 ft 15 kts 230°
2026-04-29 10:27 52.33025 4.71349 -2 ft 21 kts 222°
2026-04-29 10:28 52.32915 4.71191 -2 ft 14 kts 221°
2026-04-29 10:28 52.32863 4.71076 -2 ft 13 kts 261°
2026-04-29 10:28 52.32863 4.71013 -3 ft 12 kts 273°
2026-04-29 10:28 52.32903 4.70895 -3 ft 11 kts
2026-04-29 10:29 52.32923 4.70898 -4 ft 0 kts
2026-04-29 10:29 52.33065 4.70911 -5 ft 64 kts
2026-04-29 10:30 52.33826 4.70981 12 ft 153 kts
2026-04-29 10:30 52.35000 4.71071 799 ft 172 kts
2026-04-29 10:30 52.36198 4.71103 2147 ft 179 kts 10°
2026-04-29 10:30 52.37523 4.71244 2840 ft 206 kts 13°
2026-04-29 10:31 52.39060 4.71426 3291 ft 229 kts 11°
2026-04-29 10:31 52.40686 4.71582 4053 ft 236 kts 10°
2026-04-29 10:31 52.42387 4.71387 4658 ft 264 kts 349°
2026-04-29 10:31 52.44112 4.70133 5605 ft 277 kts 332°
2026-04-29 10:32 52.45597 4.68029 6715 ft 285 kts 316°
2026-04-29 10:32 52.46552 4.65173 7713 ft 296 kts 285°
2026-04-29 10:32 52.46738 4.61780 8774 ft 299 kts 272°
2026-04-29 10:32 52.46752 4.58345 9779 ft 303 kts 271°
2026-04-29 10:33 52.46446 4.54903 10678 ft 310 kts 248°
2026-04-29 10:33 52.45231 4.51914 11048 ft 332 kts 220°
2026-04-29 10:33 52.43279 4.49646 11413 ft 352 kts 213°
2026-04-29 10:33 52.41545 4.46802 12091 ft 365 kts 237°
2026-04-29 10:34 52.40308 4.43128 12990 ft 369 kts 242°
2026-04-29 10:34 52.39114 4.39356 13807 ft 376 kts 242°
2026-04-29 10:34 52.37892 4.35505 14567 ft 382 kts 242°
2026-04-29 10:34 52.36663 4.31672 15322 ft 386 kts 242°
2026-04-29 10:35 52.35395 4.27761 16053 ft 392 kts 242°
2026-04-29 10:35 52.34099 4.23792 16805 ft 396 kts 242°
2026-04-29 10:35 52.32784 4.19781 17574 ft 400 kts 242°
2026-04-29 10:35 52.31470 4.15802 18321 ft 404 kts 240°
2026-04-29 10:36 52.29925 4.11928 19006 ft 408 kts 233°
2026-04-29 10:36 52.28171 4.08229 19676 ft 411 kts 230°
2026-04-29 10:36 52.26351 4.04585 20336 ft 415 kts 230°
2026-04-29 10:36 52.24535 4.00968 20978 ft 418 kts 230°
2026-04-29 10:37 52.22691 3.97250 21621 ft 422 kts 230°
2026-04-29 10:37 52.20850 3.93489 22236 ft 425 kts 230°
2026-04-29 10:37 52.19027 3.89728 22905 ft 427 kts 230°
2026-04-29 10:37 52.17177 3.85893 23525 ft 430 kts 230°
2026-04-29 10:38 52.15330 3.82056 24068 ft 434 kts 230°
2026-04-29 10:38 52.13451 3.78156 24534 ft 438 kts 230°
2026-04-29 10:38 52.11567 3.74250 24974 ft 442 kts 230°
2026-04-29 10:38 52.09647 3.70280 25431 ft 446 kts 230°
2026-04-29 10:39 52.07706 3.66272 25868 ft 450 kts 230°
2026-04-29 10:39 52.05778 3.62299 26299 ft 454 kts 230°
2026-04-29 10:39 52.03808 3.58244 26721 ft 457 kts 230°
2026-04-29 10:39 52.01821 3.54159 27141 ft 461 kts 230°
2026-04-29 10:40 51.99818 3.50050 27546 ft 465 kts 230°
2026-04-29 10:40 51.97870 3.45916 27956 ft 468 kts 233°
2026-04-29 10:40 51.96228 3.41284 28329 ft 474 kts 244°
2026-04-29 10:40 51.95078 3.36242 28742 ft 478 kts 254°
2026-04-29 10:41 51.94400 3.30949 29118 ft 481 kts 260°
2026-04-29 10:41 51.93851 3.25625 29471 ft 484 kts 261°
2026-04-29 10:41 51.93298 3.20199 29816 ft 488 kts 261°
2026-04-29 10:41 51.92732 3.14730 30162 ft 491 kts 261°
2026-04-29 10:42 51.92157 3.09317 30491 ft 494 kts 260°
2026-04-29 10:42 51.91557 3.03807 30787 ft 496 kts 260°
2026-04-29 10:42 51.90948 2.98272 31143 ft 496 kts 260°
2026-04-29 10:42 51.90338 2.92779 31611 ft 494 kts 260°
2026-04-29 10:43 51.89731 2.87361 32047 ft 493 kts 259°
2026-04-29 10:43 51.89113 2.81880 32484 ft 491 kts 259°
2026-04-29 10:43 51.88496 2.76432 32903 ft 491 kts 259°
2026-04-29 10:43 51.87880 2.71026 33277 ft 491 kts 259°
2026-04-29 10:44 51.87255 2.65564 33662 ft 490 kts 259°
2026-04-29 10:44 51.86638 2.60202 34093 ft 489 kts 259°
2026-04-29 10:44 51.86011 2.54763 34347 ft 491 kts 259°
2026-04-29 10:45 51.84745 2.43858 34333 ft 494 kts 259°
2026-04-29 10:45 51.83472 2.32989 34323 ft 487 kts 259°
2026-04-29 10:46 51.82209 2.22254 34341 ft 488 kts 260°
2026-04-29 10:46 51.81862 2.11253 34344 ft 488 kts 271°
2026-04-29 10:47 51.82012 2.00303 34340 ft 489 kts 272°
2026-04-29 10:47 51.82133 1.89326 34338 ft 490 kts 271°
2026-04-29 10:48 51.82186 1.78298 34343 ft 491 kts 270°
2026-04-29 10:48 51.82202 1.67193 34339 ft 492 kts 270°
2026-04-29 10:49 51.82206 1.56177 34342 ft 492 kts 270°
2026-04-29 10:49 51.82202 1.45082 34343 ft 492 kts 270°
2026-04-29 10:50 51.82189 1.33994 34332 ft 493 kts 270°
2026-04-29 10:50 51.82167 1.22967 34336 ft 493 kts 270°
2026-04-29 10:51 51.82134 1.11858 34327 ft 494 kts 269°
2026-04-29 10:51 51.82090 1.00760 34331 ft 494 kts 269°
2026-04-29 10:52 51.82036 0.89669 34327 ft 495 kts 269°
2026-04-29 10:52 51.81971 0.78546 34327 ft 495 kts 269°
2026-04-29 10:52 51.81934 0.72925 33879 ft 501 kts 269°
2026-04-29 10:53 51.81895 0.67300 33240 ft 498 kts 269°
2026-04-29 10:53 51.81853 0.61694 32575 ft 497 kts 268°
2026-04-29 10:53 51.81809 0.56155 31869 ft 497 kts 268°
2026-04-29 10:53 51.81762 0.50559 31346 ft 493 kts 268°
2026-04-29 10:54 51.81713 0.45046 30845 ft 489 kts 268°
2026-04-29 10:54 51.81662 0.39561 30329 ft 486 kts 268°
2026-04-29 10:54 51.81610 0.34173 29747 ft 482 kts 268°
2026-04-29 10:54 51.81554 0.28785 29219 ft 476 kts 268°
2026-04-29 10:55 51.81497 0.23433 28704 ft 471 kts 268°
2026-04-29 10:55 51.81438 0.18153 28190 ft 466 kts 267°
2026-04-29 10:55 51.81378 0.12977 27688 ft 462 kts 267°
2026-04-29 10:55 51.81315 0.07803 27185 ft 458 kts 267°
2026-04-29 10:56 51.81251 0.02640 26665 ft 454 kts 267°
2026-04-29 10:56 51.81185 -0.02459 26216 ft 451 kts 266°
2026-04-29 10:56 51.81119 -0.07459 25765 ft 447 kts 265°
2026-04-29 10:56 51.81049 -0.12473 25289 ft 443 kts 265°
2026-04-29 10:57 51.80978 -0.17463 24817 ft 440 kts 265°
2026-04-29 10:57 51.80907 -0.22403 24349 ft 437 kts 265°
2026-04-29 10:57 51.80834 -0.27252 23739 ft 435 kts 265°
2026-04-29 10:57 51.80758 -0.32152 23164 ft 432 kts 265°
2026-04-29 10:58 51.80985 -0.36989 22599 ft 434 kts 283°
2026-04-29 10:58 51.82194 -0.41446 22395 ft 436 kts 303°
2026-04-29 10:58 51.84072 -0.45164 22335 ft 424 kts 321°
2026-04-29 10:58 51.86426 -0.47833 22331 ft 403 kts 333°
2026-04-29 10:59 51.88819 -0.50071 22301 ft 388 kts 334°
2026-04-29 10:59 51.90349 -0.51501 22300 ft 378 kts 334°
2026-04-29 10:59 51.93221 -0.54522 22291 ft 365 kts 319°
2026-04-29 10:59 51.94346 -0.56544 22207 ft 362 kts 308°
2026-04-29 11:00 51.95738 -0.59961 21993 ft 364 kts 302°
2026-04-29 11:00 51.97535 -0.64865 21771 ft 400 kts 301°
2026-04-29 11:00 51.98510 -0.67568 21644 ft 417 kts 301°
2026-04-29 11:00 52.00004 -0.71722 21459 ft 441 kts 301°
2026-04-29 11:01 52.01573 -0.76103 21181 ft 450 kts 301°
2026-04-29 11:01 52.03132 -0.80472 20654 ft 450 kts 301°
2026-04-29 11:01 52.04694 -0.84872 19955 ft 449 kts 301°
2026-04-29 11:01 52.06243 -0.89272 19238 ft 448 kts 301°
2026-04-29 11:02 52.07784 -0.93682 18517 ft 446 kts 301°
2026-04-29 11:02 52.09312 -0.98083 17739 ft 444 kts 301°
2026-04-29 11:02 52.10814 -1.02420 16998 ft 442 kts 301°
2026-04-29 11:02 52.12322 -1.06781 16247 ft 439 kts 300°
2026-04-29 11:03 52.13800 -1.11067 15516 ft 436 kts 299°
2026-04-29 11:03 52.14908 -1.15633 14778 ft 434 kts 282°
2026-04-29 11:03 52.15128 -1.20502 14063 ft 428 kts 263°
2026-04-29 11:03 52.14484 -1.25191 13377 ft 419 kts 249°
2026-04-29 11:04 52.13523 -1.29550 12808 ft 400 kts 246°
2026-04-29 11:04 52.12542 -1.33711 12221 ft 386 kts 246°
2026-04-29 11:04 52.11591 -1.37681 11672 ft 373 kts 245°
2026-04-29 11:04 52.10740 -1.41623 11119 ft 366 kts 255°
2026-04-29 11:05 52.10628 -1.45731 10553 ft 362 kts 278°
2026-04-29 11:05 52.11407 -1.49526 10019 ft 354 kts 301°
2026-04-29 11:05 52.12917 -1.52629 9451 ft 344 kts 317°
2026-04-29 11:05 52.14620 -1.55294 8897 ft 337 kts 320°
2026-04-29 11:06 52.16345 -1.57868 8321 ft 332 kts 324°
2026-04-29 11:06 52.18315 -1.59681 7754 ft 320 kts 345°
2026-04-29 11:06 52.20404 -1.60722 7224 ft 313 kts 349°
2026-04-29 11:06 52.22495 -1.61650 6680 ft 309 kts 350°
2026-04-29 11:07 52.24657 -1.62573 6083 ft 304 kts 355°
2026-04-29 11:07 52.26779 -1.62530 5491 ft 287 kts 21°
2026-04-29 11:07 52.28472 -1.61523 4998 ft 279 kts 30°
2026-04-29 11:07 52.30274 -1.60346 4374 ft 281 kts 21°
2026-04-29 11:08 52.32245 -1.60376 3818 ft 298 kts 350°
2026-04-29 11:08 52.34095 -1.61986 3292 ft 305 kts 329°
2026-04-29 11:08 52.35755 -1.64039 3065 ft 287 kts 330°
2026-04-29 11:08 52.37322 -1.65864 2525 ft 274 kts 329°
2026-04-29 11:09 52.38856 -1.67661 1933 ft 266 kts 333°
2026-04-29 11:09 52.40379 -1.69242 1426 ft 252 kts 331°
2026-04-29 11:09 52.41758 -1.70795 1061 ft 227 kts 331°
2026-04-29 11:09 52.42974 -1.72159 732 ft 198 kts 334°
2026-04-29 11:10 52.44064 -1.73350 424 ft 177 kts 330°
2026-04-29 11:10 52.44952 -1.74311 327 ft 109 kts 318°
2026-04-29 11:10 52.45415 -1.74835 323 ft 72 kts 325°
2026-04-29 11:10 52.45686 -1.75141 322 ft 24 kts 326°
2026-04-29 11:11 52.45827 -1.75294 320 ft 29 kts 326°
2026-04-29 11:11 52.46026 -1.75514 309 ft 38 kts 326°
2026-04-29 11:11 52.46189 -1.75530 307 ft 24 kts 58°
2026-04-29 11:11 52.46151 -1.75325 303 ft 22 kts 143°
2026-04-29 11:12 52.46025 -1.75186 306 ft 21 kts 136°
2026-04-29 11:12 52.45921 -1.75060 307 ft 18 kts 148°
2026-04-29 11:12 52.45821 -1.74950 308 ft 17 kts 145°
2026-04-29 11:12 52.45723 -1.74842 311 ft 17 kts 147°
2026-04-29 11:13 52.45629 -1.74742 317 ft 16 kts 146°
2026-04-29 11:13 52.45538 -1.74643 322 ft 15 kts 145°
2026-04-29 11:13 52.45457 -1.74510 322 ft 18 kts 117°
2026-04-29 11:13 52.45396 -1.74312 322 ft 21 kts 117°
2026-04-29 11:14 52.45326 -1.74083 322 ft 21 kts 117°
2026-04-29 11:14 52.45351 -1.73887 322 ft 17 kts 56°
2026-04-29 11:14 52.45392 -1.73757 322 ft 8 kts 117°
2026-04-29 11:14 52.45355 -1.73709 322 ft 6 kts 146°
2026-04-29 11:15 52.45346 -1.73699 322 ft 0 kts 146°